Location: Unspecified
(0.0000°N, 0.0000°E)
Time: 00:21:10
(UTC+00:00)

NOAA 15 - Visible Passes

Search period start: 26 January 2021 00:00
Search period end: 05 February 2021 00:00
Orbit: 798 x 812 km, 98.7° (Epoch: 25 January)

Date Brightness Start Highest point End Pass type
(mag) Time Alt. Az. Time Alt. Az. Time Alt. Az.
26 Jan 5.5 18:30:32 10° SE 18:34:46 25° ENE 18:38:59 10° NNE visible
26 Jan 7.1 20:10:28 10° SSW 20:14:16 20° WSW 20:18:02 10° WNW visible
27 Jan 5.9 19:44:18 10° S 19:49:11 40° WSW 19:54:04 10° NW visible
28 Jan 4.6 19:18:52 10° S 19:24:07 83° WSW 19:29:21 10° NNW visible
29 Jan 4.8 18:53:59 10° SSE 18:59:02 49° ENE 19:04:04 10° N visible
30 Jan 5.6 18:29:47 10° SE 18:33:58 24° ENE 18:38:08 10° NNE visible
30 Jan 7.0 20:09:36 10° SSW 20:13:27 21° WSW 20:17:18 10° NW visible
31 Jan 5.8 19:43:28 10° S 19:48:23 41° WSW 19:53:18 10° NNW visible
01 Feb 4.6 19:18:03 10° S 19:23:18 85° WSW 19:28:33 10° NNW visible
02 Feb 4.8 18:53:11 10° SSE 18:58:13 48° ENE 19:03:15 10° N visible
03 Feb 5.6 18:29:00 10° SE 18:33:09 24° ENE 18:37:16 10° NNE visible
03 Feb 7.0 20:08:44 10° SSW 20:12:39 21° WSW 20:16:33 10° NW visible
04 Feb 5.8 19:42:38 10° S 19:47:34 43° WSW 19:52:30 10° NNW visible
